When you browse on this site, cookies collect data to enhance your experience and personalize the content and advertising you see.
Visit our Privacy Policy to learn more. By continuing to use the site, you agree to this use of cookies and data.
  • In United Kingdom
  • List of Countries
  • For 7 days
  • Water Temperature
  • Satellite Maps
  • Weather Map
  • Weather Widgets
  • user-avatar
    Login

    Hourly Weather Heerenveen

    Today, 16 June, Sunday

    Time Temperature Precipitation Wind Pressure Humidity
    00:00 +13°C° 0 mm 2 mps 762 mmHg 89%
    01:00 +12°C° 0 mm 2 mps 762 mmHg 90%
    02:00 +12°C° 0 mm 2 mps 762 mmHg 91%
    03:00 +11°C° 0 mm 3 mps 762 mmHg 93%
    04:00 +12°C° 0 mm 3 mps 762 mmHg 90%
    05:00 +14°C° 0 mm 4 mps 762 mmHg 87%
    06:00 +15°C° 0 mm 4 mps 763 mmHg 85%
    07:00 +16°C° 0 mm 5 mps 763 mmHg 82%
    08:00 +17°C° 0 mm 5 mps 763 mmHg 80%
    09:00 +19°C° 0 mm 6 mps 763 mmHg 77%
    10:00 +19°C° 0.1 mm 5 mps 764 mmHg 74%
    11:00 +20°C° 0.1 mm 5 mps 764 mmHg 72%
    12:00 +20°C° 0.1 mm 5 mps 764 mmHg 69%
    13:00 +20°C° 0 mm 5 mps 764 mmHg 69%
    14:00 +20°C° 0 mm 5 mps 764 mmHg 69%
    15:00 +20°C° 0 mm 4 mps 764 mmHg 70%
    16:00 +20°C° 0 mm 4 mps 764 mmHg 72%
    17:00 +19°C° 0 mm 3 mps 764 mmHg 75%
    18:00 +19°C° 0 mm 3 mps 764 mmHg 77%
    19:00 +17°C° 0 mm 2 mps 764 mmHg 80%
    20:00 +16°C° 0 mm 2 mps 765 mmHg 83%
    21:00 +14°C° 0 mm 2 mps 765 mmHg 85%
    22:00 +14°C° 0 mm 2 mps 765 mmHg 87%
    23:00 +14°C° 0 mm 2 mps 765 mmHg 88%

    Tomorrow, 17 June, Monday

    Time Temperature Precipitation Wind Pressure Humidity
    00:00 +13°C° 0 mm 2 mps 765 mmHg 90%
    01:00 +13°C° 0 mm 2 mps 765 mmHg 91%
    02:00 +13°C° 0 mm 2 mps 765 mmHg 92%
    03:00 +13°C° 0 mm 2 mps 765 mmHg 93%
    04:00 +14°C° 0 mm 2 mps 765 mmHg 91%
    05:00 +16°C° 0 mm 3 mps 765 mmHg 88%
    06:00 +17°C° 0 mm 3 mps 765 mmHg 85%
    07:00 +18°C° 0 mm 3 mps 765 mmHg 81%
    08:00 +20°C° 0 mm 3 mps 765 mmHg 77%
    09:00 +21°C° 0 mm 3 mps 765 mmHg 73%
    10:00 +22°C° 0.2 mm 3 mps 765 mmHg 71%
    11:00 +22°C° 0.2 mm 3 mps 765 mmHg 69%
    12:00 +24°C° 0.2 mm 3 mps 764 mmHg 68%
    13:00 +24°C° 0.6 mm 3 mps 764 mmHg 70%
    14:00 +22°C° 0.6 mm 3 mps 764 mmHg 72%
    15:00 +22°C° 0.6 mm 3 mps 763 mmHg 73%
    16:00 +21°C° 0.2 mm 3 mps 763 mmHg 77%
    17:00 +21°C° 0.2 mm 2 mps 763 mmHg 80%
    18:00 +20°C° 0.2 mm 2 mps 762 mmHg 84%
    19:00 +18°C° 0 mm 2 mps 763 mmHg 87%
    20:00 +17°C° 0 mm 2 mps 763 mmHg 90%
    21:00 +15°C° 0 mm 1 mps 763 mmHg 93%
    22:00 +15°C° 0 mm 1 mps 763 mmHg 92%
    23:00 +15°C° 0 mm 1 mps 763 mmHg 92%

    Day after tomorrow, 18 June, Tuesday

    Time Temperature Precipitation Wind Pressure Humidity
    00:00 +14°C° 0 mm 1 mps 762 mmHg 92%
    01:00 +14°C° 0 mm 1 mps 762 mmHg 90%
    02:00 +14°C° 0 mm 1 mps 762 mmHg 89%
    03:00 +14°C° 0 mm 1 mps 762 mmHg 88%
    04:00 +15°C° 0 mm 1 mps 762 mmHg 85%
    05:00 +16°C° 0 mm 1 mps 762 mmHg 82%
    06:00 +18°C° 0 mm 1 mps 762 mmHg 79%
    07:00 +18°C° 0 mm 2 mps 762 mmHg 75%
    08:00 +19°C° 0 mm 2 mps 762 mmHg 71%
    09:00 +20°C° 0 mm 2 mps 762 mmHg 67%
    10:00 +21°C° 0 mm 2 mps 762 mmHg 66%
    11:00 +21°C° 0 mm 2 mps 762 mmHg 65%
    12:00 +23°C° 0 mm 2 mps 762 mmHg 64%
    13:00 +22°C° 0 mm 3 mps 761 mmHg 66%
    14:00 +22°C° 0 mm 3 mps 761 mmHg 67%
    15:00 +21°C° 0 mm 3 mps 761 mmHg 68%
    16:00 +21°C° 0 mm 3 mps 761 mmHg 73%
    17:00 +20°C° 0 mm 3 mps 761 mmHg 77%
    18:00 +19°C° 0 mm 3 mps 761 mmHg 81%
    19:00 +18°C° 0 mm 3 mps 761 mmHg 84%
    20:00 +16°C° 0 mm 2 mps 761 mmHg 86%
    21:00 +15°C° 0 mm 2 mps 761 mmHg 89%
    22:00 +14°C° 0 mm 2 mps 760 mmHg 88%
    23:00 +14°C° 0 mm 2 mps 760 mmHg 88%

    19 June, Wednesday

    Time Temperature Precipitation Wind Pressure Humidity
    00:00 +14°C° 0 mm 2 mps 759 mmHg 87%
    01:00 +14°C° 0 mm 2 mps 759 mmHg 85%
    02:00 +14°C° 0 mm 2 mps 759 mmHg 83%
    03:00 +13°C° 0 mm 3 mps 758 mmHg 80%
    04:00 +14°C° 0 mm 3 mps 758 mmHg 80%
    05:00 +16°C° 0 mm 3 mps 758 mmHg 80%
    06:00 +17°C° 0 mm 3 mps 757 mmHg 79%
    07:00 +18°C° 0 mm 3 mps 757 mmHg 77%
    08:00 +20°C° 0 mm 3 mps 757 mmHg 76%
    09:00 +21°C° 0 mm 2 mps 757 mmHg 74%
    10:00 +24°C° 0 mm 2 mps 757 mmHg 70%
    11:00 +25°C° 0 mm 2 mps 756 mmHg 67%
    12:00 +27°C° 0 mm 2 mps 756 mmHg 63%
    13:00 +27°C° 0 mm 2 mps 755 mmHg 62%
    14:00 +27°C° 0 mm 2 mps 755 mmHg 60%
    15:00 +28°C° 0 mm 3 mps 754 mmHg 59%
    16:00 +26°C° 0.8 mm 3 mps 754 mmHg 67%
    17:00 +24°C° 0.8 mm 3 mps 753 mmHg 76%
    18:00 +21°C° 0.8 mm 3 mps 753 mmHg 85%
    19:00 +20°C° 3 mm 3 mps 753 mmHg 88%
    20:00 +18°C° 3 mm 3 mps 753 mmHg 90%
    21:00 +16°C° 3 mm 2 mps 754 mmHg 93%
    22:00 +16°C° 0.1 mm 3 mps 754 mmHg 93%
    23:00 +15°C° 0.1 mm 4 mps 753 mmHg 93%

    20 June, Thursday

    Time Temperature Precipitation Wind Pressure Humidity
    00:00 +15°C° 0.1 mm 5 mps 753 mmHg 92%
    01:00 +15°C° 0 mm 5 mps 753 mmHg 93%
    02:00 +15°C° 0 mm 5 mps 753 mmHg 93%
    03:00 +14°C° 0 mm 5 mps 753 mmHg 93%
    04:00 +15°C° 0 mm 5 mps 754 mmHg 93%
    05:00 +15°C° 0 mm 5 mps 754 mmHg 92%
    06:00 +17°C° 0 mm 4 mps 755 mmHg 92%
    07:00 +16°C° 0.1 mm 5 mps 755 mmHg 92%
    08:00 +16°C° 0.1 mm 6 mps 756 mmHg 92%
    09:00 +16°C° 0.1 mm 6 mps 756 mmHg 91%
    10:00 +16°C° 0 mm 6 mps 757 mmHg 88%
    11:00 +16°C° 0 mm 6 mps 758 mmHg 85%
    12:00 +16°C° 0 mm 6 mps 758 mmHg 82%
    13:00 +16°C° 0 mm 6 mps 759 mmHg 80%
    14:00 +16°C° 0 mm 5 mps 759 mmHg 78%
    15:00 +17°C° 0 mm 5 mps 759 mmHg 76%
    16:00 +17°C° 0 mm 4 mps 760 mmHg 78%
    17:00 +17°C° 0 mm 3 mps 760 mmHg 80%
    18:00 +17°C° 0 mm 3 mps 760 mmHg 82%
    19:00 +15°C° 0 mm 2 mps 760 mmHg 86%
    20:00 +14°C° 0 mm 1 mps 760 mmHg 90%
    21:00 +13°C° 0 mm 1 mps 761 mmHg 93%
    22:00 +12°C° 0 mm 1 mps 761 mmHg 94%
    23:00 +12°C° 0 mm 1 mps 761 mmHg 94%

    21 June, Friday

    Time Temperature Precipitation Wind Pressure Humidity
    00:00 +11°C° 0 mm 0 mps 761 mmHg 94%
    01:00 +11°C° 0 mm 1 mps 761 mmHg 94%
    02:00 +11°C° 0 mm 1 mps 761 mmHg 94%
    03:00 +11°C° 0 mm 1 mps 761 mmHg 94%
    04:00 +12°C° 0 mm 1 mps 761 mmHg 91%
    05:00 +14°C° 0 mm 2 mps 761 mmHg 89%
    06:00 +15°C° 0 mm 2 mps 761 mmHg 86%
    07:00 +16°C° 0 mm 2 mps 761 mmHg 80%
    08:00 +17°C° 0 mm 3 mps 761 mmHg 74%
    09:00 +19°C° 0 mm 3 mps 761 mmHg 68%
    10:00 +19°C° 0 mm 3 mps 761 mmHg 64%
    11:00 +20°C° 0 mm 3 mps 761 mmHg 61%
    12:00 +20°C° 0 mm 3 mps 761 mmHg 57%
    13:00 +20°C° 0 mm 4 mps 761 mmHg 60%
    14:00 +19°C° 0 mm 4 mps 761 mmHg 64%
    15:00 +19°C° 0 mm 4 mps 761 mmHg 67%
    16:00 +18°C° 0 mm 4 mps 761 mmHg 70%
    17:00 +17°C° 0 mm 4 mps 762 mmHg 73%
    18:00 +16°C° 0 mm 3 mps 762 mmHg 76%
    19:00 +14°C° 0 mm 3 mps 762 mmHg 80%
    20:00 +13°C° 0 mm 2 mps 762 mmHg 85%
    21:00 +12°C° 0 mm 2 mps 763 mmHg 89%
    22:00 +12°C° 0 mm 2 mps 763 mmHg 90%
    23:00 +12°C° 0 mm 2 mps 763 mmHg 91%
    Show more